Tracking 19847 objects as of 16-Sep-2019
HD Live streaming from Space Station
objects crossing your sky now

COSMOS 256

Track COSMOS 256 now!
10-day predictions
COSMOS 256 is classified as:


NORAD ID: 3576
Int'l Code: 1968-106A
Perigee: 1,178.2 km
Apogee: 1,229.9 km
Inclination: 74.0 °
Period: 109.4 minutes
Semi major axis: 7575 km
RCS: 3.2431 m2 (large)
Launch date: November 30, 1968
Source: Commonwealth of Independent States (former USSR) (CIS)
Launch site: PLESETSK MISSILE AND SPACE COMPLEX (PKMTR)
aabbcc
Your satellite tracking list
Your tracking list is empty




NASA's NSSDC Master Catalog

Two Line Element Set (TLE):
1  3576U 68106A   19259.20017816  .00000291  00000-0  80641-3 0  9997
2  3576  74.0499 187.2446 0034126 324.9765 137.6582 13.16806511441485
Source of the keplerian elements: AFSPC